When you browse on this site, cookies collect data to enhance your experience and personalize the content and advertising you see.
Visit our Privacy Policy to learn more. By continuing to use the site, you agree to this use of cookies and data.
  • In Netherlands
  • List of Countries
  • For 7 days
  • Water Temperature
  • Weather Map
  • Weather Widgets
  • user-avatar
    Login

    Hourly Weather Kunki

    Today, 17 January, Friday

    Time Temperature Precipitation Wind Pressure Humidity
    00:00 -9°C° 0 mm 2 mps 624 mmHg 66%
    01:00 -10°C° 0 mm 3 mps 624 mmHg 67%
    02:00 -10°C° 0 mm 3 mps 623 mmHg 67%
    03:00 -9°C° 0 mm 2 mps 623 mmHg 67%
    04:00 -9°C° 0 mm 2 mps 623 mmHg 66%
    05:00 -9°C° 0 mm 2 mps 622 mmHg 66%
    06:00 -9°C° 0 mm 2 mps 622 mmHg 65%
    07:00 -8°C° 0 mm 2 mps 622 mmHg 66%
    08:00 -7°C° 0 mm 2 mps 622 mmHg 66%
    09:00 -6°C° 0 mm 2 mps 622 mmHg 68%
    10:00 -5°C° 0 mm 2 mps 622 mmHg 66%
    11:00 -4°C° 0 mm 2 mps 622 mmHg 64%
    12:00 -1°C° 0 mm 1 mps 622 mmHg 62%
    13:00 -2°C° 0 mm 1 mps 621 mmHg 64%
    14:00 -2°C° 0 mm 1 mps 621 mmHg 67%
    15:00 -4°C° 0 mm 2 mps 620 mmHg 68%
    16:00 -6°C° 0 mm 2 mps 619 mmHg 67%
    17:00 -7°C° 0 mm 2 mps 619 mmHg 66%
    18:00 -10°C° 0 mm 3 mps 618 mmHg 64%
    19:00 -10°C° 0 mm 3 mps 618 mmHg 59%
    20:00 -10°C° 0 mm 3 mps 618 mmHg 54%
    21:00 -10°C° 0 mm 3 mps 618 mmHg 48%
    22:00 -9°C° 0 mm 2 mps 617 mmHg 45%
    23:00 -9°C° 0 mm 2 mps 617 mmHg 43%

    Tomorrow, 18 January, Saturday

    Time Temperature Precipitation Wind Pressure Humidity
    00:00 -9°C° 0 mm 2 mps 617 mmHg 40%
    01:00 -9°C° 0 mm 2 mps 617 mmHg 39%
    02:00 -9°C° 0 mm 2 mps 617 mmHg 38%
    03:00 -9°C° 0 mm 2 mps 617 mmHg 38%
    04:00 -9°C° 0 mm 2 mps 617 mmHg 37%
    05:00 -9°C° 0 mm 2 mps 617 mmHg 37%
    06:00 -8°C° 0 mm 1 mps 617 mmHg 37%
    07:00 -7°C° 0 mm 1 mps 618 mmHg 40%
    08:00 -7°C° 0 mm 1 mps 618 mmHg 43%
    09:00 -6°C° 0 mm 0 mps 619 mmHg 46%
    10:00 -4°C° 0 mm 1 mps 619 mmHg 49%
    11:00 -3°C° 0 mm 1 mps 619 mmHg 51%
    12:00 -2°C° 0 mm 1 mps 619 mmHg 54%
    13:00 -3°C° 0 mm 1 mps 619 mmHg 62%
    14:00 -3°C° 0 mm 1 mps 619 mmHg 71%
    15:00 -4°C° 0 mm 1 mps 619 mmHg 80%
    16:00 -6°C° 0 mm 1 mps 619 mmHg 81%
    17:00 -7°C° 0 mm 1 mps 619 mmHg 82%
    18:00 -8°C° 0 mm 1 mps 618 mmHg 83%
    19:00 -8°C° 0 mm 1 mps 619 mmHg 81%
    20:00 -8°C° 0 mm 1 mps 619 mmHg 78%
    21:00 -9°C° 0 mm 1 mps 619 mmHg 76%
    22:00 -9°C° 0 mm 1 mps 619 mmHg 74%
    23:00 -9°C° 0 mm 1 mps 619 mmHg 71%

    Day after tomorrow, 19 January, Sunday

    Time Temperature Precipitation Wind Pressure Humidity
    00:00 -9°C° 0 mm 1 mps 619 mmHg 68%
    01:00 -9°C° 0 mm 1 mps 619 mmHg 68%
    02:00 -9°C° 0 mm 1 mps 619 mmHg 67%
    03:00 -10°C° 0 mm 1 mps 619 mmHg 67%
    04:00 -10°C° 0 mm 1 mps 619 mmHg 65%
    05:00 -10°C° 0 mm 1 mps 619 mmHg 64%
    06:00 -10°C° 0 mm 1 mps 619 mmHg 62%
    07:00 -9°C° 0 mm 1 mps 619 mmHg 64%
    08:00 -8°C° 0 mm 0 mps 620 mmHg 65%
    09:00 -8°C° 0 mm 0 mps 621 mmHg 66%
    10:00 -7°C° 0 mm 1 mps 621 mmHg 68%
    11:00 -6°C° 0 mm 1 mps 621 mmHg 70%
    12:00 -6°C° 0 mm 1 mps 622 mmHg 72%
    13:00 -6°C° 0 mm 1 mps 621 mmHg 77%
    14:00 -6°C° 0 mm 1 mps 621 mmHg 83%
    15:00 -6°C° 0 mm 1 mps 621 mmHg 88%
    16:00 -7°C° 0 mm 1 mps 621 mmHg 88%
    17:00 -8°C° 0 mm 1 mps 621 mmHg 88%
    18:00 -10°C° 0 mm 1 mps 621 mmHg 87%
    19:00 -10°C° 0 mm 1 mps 621 mmHg 83%
    20:00 -10°C° 0 mm 1 mps 621 mmHg 79%
    21:00 -10°C° 0 mm 1 mps 621 mmHg 75%
    22:00 -10°C° 0 mm 1 mps 621 mmHg 71%
    23:00 -10°C° 0 mm 1 mps 621 mmHg 68%

    20 January, Monday

    Time Temperature Precipitation Wind Pressure Humidity
    00:00 -9°C° 0 mm 1 mps 621 mmHg 64%
    01:00 -10°C° 0 mm 1 mps 622 mmHg 62%
    02:00 -10°C° 0 mm 1 mps 622 mmHg 60%
    03:00 -10°C° 0 mm 1 mps 622 mmHg 58%
    04:00 -10°C° 0 mm 1 mps 622 mmHg 57%
    05:00 -10°C° 0 mm 1 mps 622 mmHg 55%
    06:00 -9°C° 0 mm 1 mps 622 mmHg 54%
    07:00 -9°C° 0 mm 1 mps 622 mmHg 55%
    08:00 -8°C° 0 mm 1 mps 623 mmHg 56%
    09:00 -7°C° 0 mm 1 mps 623 mmHg 58%
    10:00 -6°C° 0 mm 1 mps 624 mmHg 58%
    11:00 -4°C° 0 mm 1 mps 624 mmHg 59%
    12:00 -3°C° 0 mm 1 mps 624 mmHg 60%
    13:00 -3°C° 0 mm 1 mps 624 mmHg 66%
    14:00 -3°C° 0 mm 1 mps 624 mmHg 72%
    15:00 -4°C° 0 mm 0 mps 623 mmHg 78%
    16:00 -4°C° 0 mm 1 mps 623 mmHg 75%
    17:00 -7°C° 0 mm 1 mps 622 mmHg 73%
    18:00 -8°C° 0 mm 1 mps 622 mmHg 71%
    19:00 -8°C° 0 mm 1 mps 622 mmHg 67%
    20:00 -8°C° 0 mm 1 mps 622 mmHg 63%
    21:00 -8°C° 0 mm 1 mps 622 mmHg 60%
    22:00 -8°C° 0 mm 1 mps 621 mmHg 58%
    23:00 -8°C° 0 mm 1 mps 621 mmHg 57%

    21 January, Tuesday

    Time Temperature Precipitation Wind Pressure Humidity
    00:00 -8°C° 0 mm 1 mps 621 mmHg 55%
    01:00 -8°C° 0 mm 1 mps 621 mmHg 55%
    02:00 -9°C° 0 mm 1 mps 620 mmHg 55%
    03:00 -9°C° 0 mm 1 mps 620 mmHg 54%
    04:00 -9°C° 0 mm 1 mps 620 mmHg 54%
    05:00 -9°C° 0 mm 1 mps 620 mmHg 54%
    06:00 -9°C° 0 mm 1 mps 620 mmHg 54%
    07:00 -8°C° 0 mm 1 mps 620 mmHg 55%
    08:00 -7°C° 0 mm 1 mps 621 mmHg 56%
    09:00 -6°C° 0 mm 1 mps 621 mmHg 58%
    10:00 -4°C° 0 mm 1 mps 621 mmHg 57%
    11:00 -3°C° 0 mm 1 mps 622 mmHg 56%
    12:00 -2°C° 0 mm 1 mps 622 mmHg 55%
    13:00 -3°C° 0 mm 1 mps 622 mmHg 61%
    14:00 -3°C° 0 mm 1 mps 621 mmHg 67%
    15:00 -3°C° 0 mm 1 mps 621 mmHg 73%
    16:00 -6°C° 0 mm 1 mps 621 mmHg 73%
    17:00 -7°C° 0 mm 1 mps 620 mmHg 73%
    18:00 -8°C° 0 mm 1 mps 620 mmHg 73%
    19:00 -8°C° 0 mm 1 mps 620 mmHg 70%
    20:00 -8°C° 0 mm 1 mps 620 mmHg 67%
    21:00 -9°C° 0 mm 1 mps 621 mmHg 65%
    22:00 -9°C° 0 mm 1 mps 620 mmHg 63%
    23:00 -9°C° 0 mm 1 mps 620 mmHg 62%

    22 January, Wednesday

    Time Temperature Precipitation Wind Pressure Humidity
    00:00 -10°C° 0 mm 2 mps 620 mmHg 60%
    01:00 -10°C° 0 mm 2 mps 620 mmHg 60%
    02:00 -10°C° 0 mm 2 mps 620 mmHg 60%
    03:00 -10°C° 0 mm 2 mps 620 mmHg 60%
    04:00 -10°C° 0 mm 2 mps 620 mmHg 59%
    05:00 -10°C° 0 mm 2 mps 620 mmHg 58%
    06:00 -10°C° 0 mm 2 mps 620 mmHg 57%
    07:00 -9°C° 0 mm 2 mps 620 mmHg 56%
    08:00 -8°C° 0 mm 2 mps 620 mmHg 56%
    09:00 -7°C° 0 mm 2 mps 621 mmHg 56%
    10:00 -3°C° 0 mm 1 mps 621 mmHg 55%
    11:00 -2°C° 0 mm 1 mps 621 mmHg 53%
    12:00 -1°C° 0 mm 1 mps 621 mmHg 51%
    13:00 -1°C° 0 mm 1 mps 620 mmHg 55%
    14:00 -1°C° 0 mm 1 mps 619 mmHg 58%
    15:00 -2°C° 0 mm 1 mps 619 mmHg 62%
    16:00 -3°C° 0 mm 1 mps 618 mmHg 56%
    17:00 -6°C° 0 mm 2 mps 617 mmHg 50%
    18:00 -8°C° 0 mm 2 mps 617 mmHg 44%
    19:00 -8°C° 0 mm 2 mps 617 mmHg 40%
    20:00 -8°C° 0 mm 2 mps 616 mmHg 36%
    21:00 -8°C° 0 mm 2 mps 616 mmHg 32%
    22:00 -7°C° 0 mm 2 mps 616 mmHg 33%
    23:00 -7°C° 0 mm 2 mps 616 mmHg 33%
    Show more